This is the latest recevied weather packets stored in our database for station/object KU9TRY. If no packets are shown the sender has not sent any weather packets the latest 10 day(s).
| Time | Temp. | Humidity | Pressure | Rain* | Wind** | Luminosity | Snow |
|---|---|---|---|---|---|---|---|
| 1787753795 | 24.44° C | 74% | 1017.7 hPa | 0 mm | - | 587 W/m² | - |
| 1787753493 | 23.33° C | 78% | 1017.7 hPa | 0 mm | - | 495 W/m² | - |
| 1787753193 | 23.33° C | 79% | 1017.9 hPa | 0 mm | - | 390 W/m² | - |
| 1787752887 | 23.33° C | 79% | 1017.8 hPa | 0 mm | - | 227 W/m² | - |
| 1787752586 | 22.78° C | 80% | 1017.8 hPa | 0 mm | - | 186 W/m² | - |
| 1787752283 | 22.22° C | 81% | 1017.7 hPa | 0 mm | - | 140 W/m² | - |
| 1787751980 | 22.22° C | 82% | 1017.9 hPa | 0 mm | - | 124 W/m² | - |
| 1787751676 | 21.67° C | 83% | 1017.8 hPa | 0 mm | - | 113 W/m² | - |
| 1787751372 | 21.11° C | 85% | 1018 hPa | 0 mm | - | 181 W/m² | - |
| 1787751067 | 20.56° C | 85% | 1017.9 hPa | 0 mm | - | 92 W/m² | - |
| 1787750762 | 20.56° C | 87% | 1018 hPa | 0 mm | - | 138 W/m² | - |
| 1787750461 | 20° C | 88% | 1018 hPa | 0 mm | - | 109 W/m² | - |
| 1787750157 | 20° C | 89% | 1017.9 hPa | 0 mm | - | 187 W/m² | - |
| 1787749853 | 19.44° C | 89% | 1017.8 hPa | 0 mm | - | 67 W/m² | - |
| 1787749549 | 18.89° C | 91% | 1017.9 hPa | 0 mm | - | 63 W/m² | - |
| 1787749244 | 18.89° C | 92% | 1017.9 hPa | 0 mm | - | 52 W/m² | - |
| 1787748939 | 18.33° C | 93% | 1018 hPa | 0 mm | - | 61 W/m² | - |
| 1787748633 | 18.33° C | 93% | 1017.9 hPa | 0 mm | - | 51 W/m² | - |
| 1787748328 | 18.33° C | 93% | 1017.8 hPa | 0 mm | - | 56 W/m² | - |
| 1787748025 | 17.78° C | 94% | 1017.5 hPa | 0 mm | - | 53 W/m² | - |
| 1787747724 | 17.78° C | 94% | 1017.8 hPa | 0 mm | - | 46 W/m² | - |
| 1787747420 | 17.78° C | 95% | 1017.7 hPa | 0 mm | - | 43 W/m² | - |
| 1787747120 | 17.22° C | 95% | 1017.8 hPa | 0 mm | - | 47 W/m² | - |
| 1787746817 | 17.22° C | 96% | 1017.7 hPa | 0 mm | - | 44 W/m² | - |
| 1787746515 | 16.67° C | 97% | 1017.6 hPa | 0 mm | - | 45 W/m² | - |
* Rain latest hour (hover to see other rain measurements)
** Current wind speed in m/s (hover to see current wind gust speed)